Regional Weather Roundup
Issued by NWS Newport/Morehead, NC

Home | Current Version | Previous Version | Text Only | Print | Product List | Glossary On
Versions: 1 2 3 4 5 6 7 8 9 10 11 12 13 14 15 16 17 18 19 20 21 22 23 24 25 26 27 28 29 30 31 32 33 34 35 36 37 38 39 40 41 42 43 44 45 46 47 48 49 50
000
ASUS42 KMHX 301913
RWRMHX
WEATHER ROUNDUP FOR EASTERN NORTH CAROLINA
NATIONAL WEATHER SERVICE NEWPORT/MOREHEAD CITY NC
300 PM EDT THU JUL 30 2015

NOTE: "FAIR" INDICATES FEW OR NO CLOUDS BELOW 12,000 FEET
WITH NO SIGNIFICANT WEATHER AND/OR OBSTRUCTIONS TO VISIBILITY

NCZ015>017-031-032-045>047-102-103-302000-
NORTH COAST

CITY           SKY/WX    TMP DP  RH WIND       PRES   REMARKS
EDENTON          N/A     86  76  72 S14       29.92F
ELIZABETH CITY MOSUNNY   88  75  65 SE13      29.91F
KITTY HAWK     MOCLDY    90  75  61 SW7       29.91F HX 100
MANTEO         CLOUDY    87  75  67 S15       29.93F

$$

NCZ045>047-081-094-103-104-302000-
CENTRAL COAST

CITY           SKY/WX    TMP DP  RH WIND       PRES   REMARKS
FRISCO         MOSUNNY   86  75  69 S14       29.94F
SWANQUARTER      N/A     90 N/A N/A S13G20    29.88F

$$

NCZ095-097-098-100-101-302000-
SOUTHERN COAST

CITY           SKY/WX    TMP DP  RH WIND       PRES   REMARKS
BEAUFORT       SUNNY     86  77  74 S15       29.92F
CEDAR ISLAND     N/A     90 N/A N/A S9G22     29.97S
JACKSONVILLE   MOSUNNY   89  76  65 SE8       29.90F HX 100
PINEY ISLAND   PTCLDY   N/A N/A N/A MISG      29.92F
WILMINGTON     MOSUNNY   89  76  65 VRB7      29.90F HX 100


$$

NCZ011>013-027>030-043-044-078>080-089-090>093-098-302000-
COASTAL PLAIN

CITY           SKY/WX    TMP DP  RH WIND       PRES   REMARKS
AHOSKIE        SUNNY     89  71  55 CALM      29.90F
CLINTON        SUNNY     93  72  49 N7        29.91F HX 101
ELIZABETHTOWN  MOSUNNY   93  68  43 CALM      29.90F
GOLDSBORO      SUNNY     94  68  42 VRB5      29.88F
GREENVILLE     SUNNY     95  70  43 SE3       29.93F HX 101
HAVELOCK       MOSUNNY   88  74  63 S9        29.92F
KENANSVILLE    SUNNY     92  64  39 NE5       29.91F
KINSTON        SUNNY     91  70  49 CALM      29.91F
NEW BERN       CLOUDY    86  77  74 NE5       29.93F
RICHLANDS      SUNNY     91  72  52 NE7       29.90F
ROCKY MOUNT    PTSUNNY   95  70  44 E6        29.90F HX 101
WASHINGTON     MOSUNNY   91  75  60 SE7       29.91F HX 101
WHITEVILLE     SUNNY     92  69  47 NE6       29.90F

$$

AMZ130-135-150-152-154-156-158-170-250-252-270-ANZ085-086-088-633-658-670-302000-
MARINE OBSERVATIONS

STATION/POSITION TIME  TEMP    WIND        PRES    WAVE   SWELL
                       AIR SEA DIR/SP/G            HT/PER HT/PER
                 (UTC) (F)     (DEG/KT/KT) (MB)    (FT/S) (FT/S)
CHESAPEAKE LIGHT 1900   81     170/ 14/ 15 1013.3
64 E VA BEACH    1850   82 82  190/ 14/ 16 1013.3    3/ 9   2/ 9
DUCK             1800   83 65  190/ 15/ 19 1012.9
2 E DUCK         1811      75                N/A     2/ 8
OREGON INLET     1800   82 83  200/ 15/ 17 1014.2
13E OREGON INLT  1900      82                N/A     4/ 4   2/11
HATTERAS CG      1800   86 83  180/  4/  9 1014.1
DIAMOND BUOY     1850   84 86  180/ 19/ 25 1013.8    5/ 5   2/10
CAPE LOOKOUT     1900   83     170/ 12/ 13 1012.9
BEAUFORT LAB     1800   83 83  180/ 10/ 12 1013.1
30 SE NEW RVR IN NOT AVBL
27 SE WRIGHTSVLE 1800   80 83  100/  2/  4   N/A
5 SE WRIGHTSVLE  1808   82 84  120/  8/ 10 1013.4
225 S CAPE HAT   1850   82 81  190/ 19/ 23 1014.4    9/ 8
41 SE CHARLESTON 1850   82 85  360/  8/ 10 1012.9    3/ 8   3/ 8

$$



USA.gov is the U.S. government's official web portal to all federal, state and local government web resources and services.